Weather History for KFSI - January, 2014

Change the Weather History Date:

Thursday, January 23, 2014

  Actual Average Record
Temperature  
Mean Temperature 26 °F -  
Max Temperature 37 °F 54 °F 75 °F (1967)
Min Temperature 13 °F 28 °F -1 °F (1966)
Degree Days  
Heating Degree Days 40    
Moisture  
Dew Point -1 °F    
Average Humidity 36    
Maximum Humidity 55    
Minimum Humidity 23    
Precipitation  
Precipitation 0.00 in - - ()
Sea Level Pressure  
Sea Level Pressure 30.64 in    
Wind  
Wind Speed 20 mph (NNE)    
Max Wind Speed 29 mph    
Max Gust Speed 41 mph    
Visibility 10 miles    
Events      
Averages and records for this station are not official NWS values.
T = Trace of Precipitation, MM = Missing Value Source: NWS Daily Summary

Daily Weather History Graph

Daily Weather History Graph

Search for Another Location

Airport or City:

Trip Planner

Search our weather history database for the weather conditions in past years. The results will help you decide how hot, cold, wet, or windy it might be!

Date:

Astronomy

Jan. 23, 2014 Rise Set
Actual Time 7:37 AM CST 5:54 PM CST
Civil Twilight 7:10 AM CST 6:21 PM CST
Nautical Twilight 6:39 AM CST 6:51 PM CST
Astronomical Twilight 6:09 AM CST 7:21 PM CST
Moon 12:08 AM CST (1/23) 11:32 AM CST (1/23)
Length of Visible Light 11h 10m
Length of Day
10h 16m
Waning Gibbous, 55% of the Moon is Illuminated
Jan 23
Waning Gibbous
Jan 23
Last Quarter
Jan 30
New
Feb 6
First Quarter
Feb 14
Full

Hourly Weather History & Observations

Time (CST) Temp. Windchill Dew Point Humidity Pressure Visibility Wind Dir Wind Speed Gust Speed Precip Events Conditions
12:58 AM 37.8 °F 29.8 °F 16.2 °F 42% 30.27 in 10.0 mi NE 12.7 mph - N/A   Scattered Clouds
1:58 AM 36.5 °F 28.2 °F 16.2 °F 44% 30.29 in 10.0 mi NE 12.7 mph - N/A   Mostly Cloudy
2:58 AM 35.1 °F 23.5 °F 16.3 °F 47% 30.33 in 10.0 mi NNE 21.9 mph 28.8 mph N/A   Overcast
3:58 AM 30.4 °F 15.7 °F 15.8 °F 55% 30.37 in 10.0 mi NNE 28.8 mph 40.3 mph N/A   Overcast
4:58 AM 27.7 °F 12.8 °F 11.8 °F 51% 30.42 in 10.0 mi NNE 25.3 mph 41.4 mph N/A   Scattered Clouds
5:58 AM 25.3 °F 10.0 °F 9.7 °F 52% 30.45 in 10.0 mi NNE 24.2 mph 34.5 mph N/A   Overcast
6:58 AM 22.6 °F 6.1 °F 0.5 °F 38% 30.52 in 10.0 mi NNE 25.3 mph 34.5 mph N/A   Overcast
7:58 AM 20.5 °F 3.2 °F -0.2 °F 41% 30.57 in 10.0 mi NNE 25.3 mph 32.2 mph N/A   Overcast
8:58 AM 18.3 °F 0.7 °F -3.8 °F 38% 30.64 in 10.0 mi NNE 24.2 mph 38.0 mph N/A   Overcast
9:58 AM 17.6 °F -1.0 °F -6.3 °F 34% 30.67 in 10.0 mi NNE 26.5 mph 32.2 mph N/A   Overcast
10:58 AM 18.3 °F -0.3 °F -8.7 °F 30% 30.70 in 10.0 mi NNE 27.6 mph 39.1 mph N/A   Overcast
11:58 AM 19.4 °F 2.1 °F -7.8 °F 30% 30.73 in 10.0 mi NNE 24.2 mph 32.2 mph N/A   Overcast
12:58 PM 21.0 °F 5.0 °F -8.9 °F 27% 30.73 in 10.0 mi NE 21.9 mph 31.1 mph N/A   Overcast
1:58 PM 23.5 °F 8.7 °F -7.6 °F 25% 30.71 in 10.0 mi NNE 20.7 mph 29.9 mph N/A   Overcast
2:58 PM 25.9 °F 11.1 °F -7.2 °F 23% 30.72 in 10.0 mi NNE 23.0 mph 32.2 mph N/A   Partly Cloudy
3:58 PM 24.8 °F 10.0 °F -6.7 °F 25% 30.74 in 10.0 mi North 21.9 mph 29.9 mph N/A   Mostly Cloudy
4:58 PM 21.2 °F 6.4 °F -8.7 °F 27% 30.77 in 10.0 mi NNE 18.4 mph - N/A   Scattered Clouds
5:58 PM 19.9 °F 4.3 °F -7.4 °F 30% 30.78 in 10.0 mi NNE 19.6 mph - N/A   Overcast
6:58 PM 19.4 °F 5.0 °F -6.3 °F 32% 30.78 in 10.0 mi North 16.1 mph - N/A   Mostly Cloudy
7:58 PM 19.4 °F 3.6 °F -6.7 °F 31% 30.79 in 10.0 mi NNE 19.6 mph - N/A   Overcast
8:58 PM 18.9 °F 2.1 °F -6.3 °F 33% 30.80 in 10.0 mi NNE 21.9 mph 26.5 mph N/A   Overcast
9:58 PM 16.7 °F 3.2 °F -6.5 °F 35% 30.82 in 10.0 mi NNE 12.7 mph - N/A   Clear
10:58 PM 14.4 °F 6.9 °F -6.3 °F 40% 30.83 in 10.0 mi North 4.6 mph - N/A   Clear
11:58 PM 13.5 °F 4.4 °F -6.2 °F 41% 30.82 in 10.0 mi North 5.8 mph - N/A   Clear